Wind_Speed
6 5 4 4 4 3 3 3 3 2 3 3 3 4 4 5 5 6 7 7 8 9 9 10 11 11 11 12 13 13 14 14 15 15 16 17 17 18 18 18 19 20 20 19 19 19 18 18 17
7 6 5 5 4 3 3 3 3 3 3 3 4 4 4 5 6 6 7 7 8 8 9 9 10 10 10 11 12 12 13 13 14 14 15 15 16 17 18 19 20 21 21 21 21 20 20 19 18
9 7 7 6 4 2 3 3 4 3 3 4 4 4 5 6 6 7 7 8 8 8 8 8 8 9 10 10 11 11 11 12 12 13 13 14 15 16 17 19 20 20 21 22 22 22 21 20 19
11 10 9 7 6 3 3 3 3 4 4 5 5 5 5 6 6 7 7 8 8 7 7 7 8 9 9 10 10 10 10 11 11 12 13 14 14 15 16 17 18 19 20 21 21 22 21 20 19
13 12 10 9 7 5 5 3 3 4 5 6 6 6 6 7 7 7 7 7 7 7 7 7 8 8 9 9 9 10 10 11 11 12 13 13 14 15 15 16 17 18 19 19 19 20 20 20 20
15 13 12 10 9 8 7 5 5 5 5 6 6 5 6 6 6 6 6 6 7 7 7 7 7 7 8 8 9 10 10 11 11 12 13 14 14 15 15 15 16 17 18 19 19 19 20 20 20
15 15 13 11 10 9 8 7 6 6 5 6 5 5 6 6 7 6 6 6 7 7 7 7 7 7 8 8 9 10 10 11 11 12 13 14 15 15 15 16 16 16 17 18 19 19 20 20 21
17 16 14 12 11 10 9 8 8 7 6 6 5 5 6 6 7 6 6 7 8 8 7 7 7 7 8 9 9 10 10 11 12 13 13 14 15 15 15 16 16 16 17 17 18 19 20 20 20
19 17 14 12 11 10 10 11 9 8 7 7 6 5 5 6 6 6 6 7 7 7 7 7 7 7 8 9 10 10 11 12 13 13 14 15 15 16 16 16 16 16 16 16 17 18 19 19 20
19 18 17 15 13 11 11 11 10 9 8 8 7 6 6 6 6 6 6 6 6 6 7 7 7 8 8 9 10 10 11 12 13 14 15 15 16 16 17 17 16 16 16 16 16 17 18 18 19
18 18 18 16 15 12 12 12 10 10 9 8 7 6 6 6 6 6 6 6 6 6 6 6 7 8 9 9 10 10 11 13 14 15 15 16 16 17 17 17 16 16 16 16 16 17 17 18 19
19 18 17 16 15 14 12 13 11 10 9 8 7 6 6 6 6 6 6 6 6 6 6 6 7 8 9 9 10 11 12 14 15 15 16 16 16 16 16 16 16 16 15 15 16 16 17 17 18
19 18 16 14 14 13 12 12 11 11 10 9 8 7 7 7 7 7 6 6 6 6 7 7 7 8 9 9 10 12 13 14 15 16 16 16 16 16 16 16 16 15 15 15 15 15 16 17 17
20 18 16 15 15 12 12 12 12 11 9 8 8 8 8 8 8 8 7 7 7 7 7 7 8 9 9 10 11 12 14 15 16 16 16 16 16 16 16 16 16 15 14 14 14 14 15 16 16
19 18 16 15 14 13 13 11 10 10 9 8 8 8 8 9 8 8 8 7 7 7 7 7 8 9 9 10 11 12 14 15 16 16 16 16 17 16 16 16 15 15 14 14 13 13 14 14 15
18 17 16 15 14 13 12 10 9 10 9 9 8 8 9 9 9 9 9 8 8 7 7 8 8 9 9 10 11 12 14 15 15 16 16 16 17 16 16 16 15 14 13 13 13 12 12 13 14
17 16 15 13 12 10 10 9 7 7 8 8 8 9 9 9 9 9 9 8 8 7 7 8 8 9 9 10 11 12 13 14 15 16 16 17 16 16 16 15 15 13 13 12 11 11 11 11 13
15 13 12 10 10 8 8 7 6 6 6 6 7 8 9 9 9 9 9 9 8 8 7 8 8 9 10 10 11 12 13 14 15 16 16 17 16 16 15 15 14 13 12 11 11 10 10 10 11
13 11 10 9 8 7 6 5 5 5 6 7 7 8 8 8 9 9 8 8 8 8 7 7 8 9 10 11 11 12 13 14 15 16 16 17 16 16 15 15 14 13 12 11 10 10 10 10 10
11 9 8 8 7 6 5 4 4 5 5 6 6 7 8 8 8 8 8 8 8 8 7 8 8 9 10 10 11 12 13 14 15 16 16 17 16 16 15 15 13 12 11 10 10 10 9 10 10
10 9 8 7 6 6 5 4 4 4 4 5 6 8 8 8 8 8 7 7 8 8 8 8 8 9 9 10 11 12 12 13 14 15 16 17 17 16 15 14 13 11 10 10 9 8 8 8 9
10 9 7 7 6 5 4 3 3 3 3 5 6 7 8 8 8 7 7 8 8 8 8 8 8 9 9 10 11 11 12 13 14 15 16 17 17 16 15 14 13 11 10 10 9 8 7 7 7
8 8 7 6 6 5 4 3 2 3 3 4 6 6 7 7 8 7 8 8 8 8 8 8 9 9 9 10 11 11 12 13 14 15 16 17 17 17 15 14 13 12 10 9 8 8 6 6 6
8 8 7 6 5 5 3 2 2 2 3 4 5 5 6 7 7 7 7 8 8 8 8 9 9 10 9 10 11 11 12 13 13 14 15 17 17 17 15 14 13 12 10 9 8 7 6 4 5
8 7 6 6 5 3 2 2 2 2 3 4 5 6 6 7 8 7 8 8 9 9 9 9 10 10 10 10 11 11 12 12 13 14 15 16 17 16 15 14 12 11 10 9 8 7 5 4 4
7 6 5 4 3 3 2 1 2 3 3 4 5 6 6 7 8 8 8 9 9 9 10 10 10 10 11 11 11 11 12 12 13 14 14 15 16 15 15 14 12 11 10 9 8 7 5 4 4
5 4 3 2 2 2 1 1 2 4 4 5 6 6 7 8 8 9 9 9 10 10 10 11 11 11 12 12 12 12 12 12 13 13 14 14 15 15 14 14 12 11 9 9 8 7 6 5 4
4 3 1 1 1 1 2 2 3 4 6 6 7 7 8 8 9 9 10 10 10 11 11 12 12 13 13 13 13 13 13 12 13 13 13 14 14 14 14 13 12 11 10 9 8 7 6 5 4
3 1 1 1 2 2 3 4 5 6 6 7 7 8 8 9 9 10 10 11 11 12 12 13 13 14 14 14 14 14 14 13 13 13 14 14 14 13 13 13 12 11 10 9 9 8 7 6 5
2 2 2 3 3 4 5 5 7 7 8 8 9 9 10 10 11 11 12 12 13 13 14 14 14 15 15 15 15 15 15 15 14 14 14 14 13 13 13 12 12 11 10 9 9 8 7 6 5
Wind_Direction
262 281 299 299 289 276 260 229 242 263 274 279 270 269 260 275 289 294 300 304 307 308 308 305 302 301 301 302 305 306 306 305 303 300 297 294 291 287 283 281 278 277 276 275 275 272 271 272 270
250 264 273 283 295 296 279 244 243 253 266 290 279 276 283 294 300 303 306 308 309 308 306 305 303 301 302 305 308 309 311 310 308 306 303 298 295 290 286 281 279 277 275 273 273 271 269 270 268
247 250 259 268 281 292 300 266 269 253 268 285 286 289 299 303 301 302 306 308 310 308 306 304 303 305 307 310 312 313 315 315 313 311 308 304 300 294 290 285 281 278 274 272 270 269 268 266 265
245 246 252 259 267 276 309 300 265 255 265 270 277 286 300 301 300 304 306 308 310 311 309 306 307 309 311 313 315 318 319 318 316 314 311 308 304 301 296 291 285 280 275 272 270 269 267 264 261
244 246 249 256 263 276 292 287 260 252 266 271 272 282 295 295 298 306 308 310 311 313 312 310 312 313 315 320 322 324 322 321 319 317 315 313 309 305 301 296 290 284 277 274 271 268 264 262 258
243 245 246 253 264 273 278 271 272 275 270 276 274 288 298 298 301 305 309 313 312 313 314 315 316 318 321 324 325 325 324 323 321 319 317 315 312 308 304 299 294 287 280 274 269 268 266 260 258
241 244 247 250 257 266 267 264 259 264 280 280 278 286 294 300 301 304 309 310 309 311 312 315 320 320 320 323 325 325 325 324 323 320 318 316 313 310 306 302 297 291 284 276 269 267 265 261 258
239 245 246 248 251 257 257 257 258 263 271 275 276 284 288 298 300 303 306 305 306 308 312 316 319 320 320 322 323 323 323 323 323 321 319 317 316 313 309 304 299 293 286 279 272 268 264 260 257
238 242 243 244 245 248 251 254 254 255 263 266 263 273 280 289 296 300 303 303 306 311 315 318 319 321 320 322 323 322 322 323 324 322 320 318 316 314 312 307 301 295 288 282 275 270 265 259 254
233 238 243 244 244 247 247 254 254 251 255 253 254 263 273 284 287 291 298 300 305 309 312 311 312 317 319 321 322 322 322 322 323 322 320 317 315 314 312 309 303 298 290 283 277 273 268 260 252
230 236 240 243 243 246 247 246 250 255 252 249 256 263 272 281 281 286 292 295 299 303 306 306 309 316 320 323 323 322 322 322 322 321 319 318 317 315 313 310 304 300 294 287 281 275 268 262 252
227 233 239 240 242 246 249 246 247 248 250 255 265 271 281 280 276 280 287 295 297 299 304 306 311 318 322 324 324 324 324 323 323 322 321 320 318 317 315 311 306 301 296 289 283 277 268 263 255
225 232 236 238 243 241 243 248 251 250 253 259 268 275 281 277 275 276 282 291 295 299 304 307 311 316 321 324 325 328 327 326 324 324 323 322 319 317 315 312 307 302 297 292 286 279 269 260 255
222 227 234 239 243 242 237 243 244 250 257 258 263 270 275 272 272 273 277 283 289 298 303 307 311 315 319 322 326 329 329 328 327 326 324 323 320 317 316 313 308 303 298 293 288 281 271 261 254
220 224 230 235 237 239 237 239 247 255 259 260 263 267 271 267 270 270 272 277 285 293 298 305 310 313 315 321 327 329 329 329 329 328 327 325 323 320 318 314 310 304 299 294 287 280 272 261 252
217 221 224 228 232 240 245 245 249 253 254 256 261 266 267 265 265 264 266 271 279 285 292 302 307 311 315 321 326 330 331 331 331 331 330 329 326 323 320 317 313 307 302 297 289 281 273 261 250
216 218 218 224 231 239 240 241 247 248 250 254 261 265 264 262 260 259 261 267 274 281 289 300 305 312 317 322 327 331 333 334 334 333 332 331 329 326 324 322 318 314 308 302 294 284 275 264 252
208 208 209 220 225 231 228 235 243 242 245 259 266 264 265 264 263 259 260 264 270 278 289 300 307 315 320 324 330 334 336 337 337 336 335 335 333 330 328 327 323 318 311 305 299 290 277 266 255
200 204 213 218 217 213 217 224 237 241 248 261 265 266 271 268 268 262 259 262 267 276 289 298 309 317 322 326 330 333 336 338 339 339 340 339 337 335 333 330 325 322 316 309 302 293 281 268 259
195 193 193 195 201 200 205 216 226 233 253 256 261 269 273 271 271 265 261 261 265 275 287 297 308 315 320 326 329 332 335 338 340 342 343 343 341 338 337 335 330 328 323 315 307 297 286 271 257
177 178 180 181 176 180 190 203 213 233 259 263 268 272 271 271 271 267 264 265 268 274 284 294 304 311 317 325 330 332 335 337 339 343 345 346 345 342 341 339 336 333 331 325 317 307 292 273 255
164 158 156 164 163 160 164 157 186 222 261 272 276 277 275 274 272 269 266 269 271 274 284 293 301 308 315 324 329 331 333 335 338 342 345 346 347 344 343 341 339 338 336 333 326 320 303 277 255
149 153 148 145 146 150 154 165 197 231 261 278 281 284 278 276 273 269 270 271 272 275 283 292 299 306 314 320 326 329 331 333 336 339 342 344 346 345 343 342 341 340 339 337 333 325 314 287 261
141 146 145 145 147 150 159 189 211 238 272 282 288 292 290 283 280 277 276 273 274 277 282 288 296 303 310 315 320 325 328 331 334 337 340 343 345 346 345 343 343 342 342 338 337 334 323 299 267
138 141 142 144 149 155 172 191 235 274 293 296 299 301 299 293 286 282 279 276 275 278 282 287 295 302 306 310 315 320 324 329 331 334 337 341 344 346 348 346 344 344 344 345 342 338 327 309 281
134 137 142 148 158 168 189 206 269 293 307 312 312 311 307 300 293 286 282 279 277 280 283 288 293 299 302 306 310 315 320 325 328 332 334 338 343 345 347 347 345 343 345 346 347 343 332 312 292
132 137 139 158 176 191 200 268 299 310 315 316 315 313 307 301 297 290 285 284 285 285 287 289 291 294 297 300 305 309 314 319 323 328 331 335 340 343 345 346 344 345 344 343 341 342 333 312 298
123 120 127 156 200 280 291 301 304 306 312 311 310 309 307 304 300 295 290 289 289 289 290 293 293 291 293 295 299 303 308 312 317 322 326 331 334 338 340 342 343 341 341 340 338 338 332 320 302
106 101 28 333 315 308 313 315 313 312 315 313 309 309 306 304 301 297 293 291 289 288 289 290 293 291 290 291 294 298 301 305 309 313 319 324 327 331 335 336 337 338 338 336 333 332 330 319 303
59 18 339 317 313 308 306 308 306 311 312 312 311 309 305 303 302 297 294 293 291 288 287 286 288 288 287 288 291 294 296 298 301 305 309 315 318 320 325 329 331 331 332 332 331 329 327 323 314
Height
5861 5861 5862 5863 5863 5863 5863 5865 5865 5865 5866 5866 5866 5867 5867 5868 5869 5872 5870 5868 5868 5868 5867 5866 5866 5865 5864 5864 5863 5862 5861 5860 5859 5858 5857 5857 5856 5856 5856 5856 5856 5856 5857 5857 5857 5858 5859 5860 5861
5860 5861 5862 5863 5863 5863 5864 5864 5865 5865 5866 5866 5866 5866 5866 5866 5867 5867 5867 5867 5866 5866 5866 5865 5864 5864 5863 5862 5861 5860 5859 5858 5857 5856 5855 5854 5854 5853 5853 5853 5853 5853 5853 5853 5854 5855 5856 5857 5858
5859 5860 5862 5862 5862 5863 5863 5863 5864 5864 5865 5865 5865 5865 5865 5865 5866 5866 5866 5865 5865 5865 5864 5864 5863 5862 5861 5860 5859 5858 5857 5856 5855 5854 5853 5852 5851 5850 5850 5849 5849 5849 5849 5849 5850 5851 5852 5853 5854
5858 5859 5861 5862 5862 5862 5863 5863 5863 5864 5864 5865 5865 5865 5865 5865 5865 5865 5864 5864 5864 5863 5863 5862 5862 5861 5860 5859 5858 5857 5856 5855 5853 5852 5851 5850 5848 5848 5847 5846 5845 5845 5845 5845 5846 5847 5848 5849 5850
5856 5858 5859 5860 5861 5861 5862 5862 5863 5863 5864 5864 5864 5864 5864 5864 5864 5863 5863 5863 5863 5863 5862 5861 5860 5859 5858 5857 5856 5855 5854 5853 5852 5850 5849 5847 5846 5845 5844 5843 5842 5841 5841 5841 5842 5842 5843 5845 5846
5854 5856 5858 5858 5860 5861 5861 5861 5862 5863 5863 5863 5863 5863 5863 5863 5862 5862 5862 5862 5862 5861 5861 5860 5859 5858 5857 5856 5855 5854 5853 5851 5850 5848 5847 5846 5844 5842 5841 5840 5839 5838 5838 5838 5838 5838 5839 5840 5842
5852 5853 5855 5857 5858 5859 5860 5860 5861 5861 5862 5862 5862 5862 5862 5862 5862 5861 5861 5861 5861 5860 5859 5859 5858 5857 5856 5855 5854 5852 5851 5850 5848 5847 5845 5843 5842 5840 5838 5837 5836 5835 5834 5834 5834 5834 5835 5836 5838
5848 5851 5853 5855 5856 5858 5858 5858 5859 5860 5861 5861 5861 5861 5861 5861 5861 5860 5860 5860 5859 5859 5858 5857 5857 5856 5855 5854 5852 5851 5850 5848 5847 5845 5843 5841 5839 5837 5836 5834 5833 5832 5831 5830 5830 5830 5831 5832 5833
5845 5850 5850 5852 5854 5856 5856 5857 5857 5858 5859 5859 5860 5860 5860 5860 5860 5860 5859 5859 5858 5857 5857 5856 5855 5854 5853 5852 5851 5850 5848 5846 5845 5843 5841 5839 5837 5835 5833 5831 5830 5828 5827 5827 5826 5826 5827 5828 5829
5843 5846 5848 5850 5852 5854 5854 5855 5856 5857 5858 5858 5858 5859 5859 5859 5859 5859 5858 5858 5857 5856 5856 5855 5854 5853 5852 5851 5849 5848 5846 5845 5843 5840 5838 5836 5834 5832 5830 5828 5826 5825 5824 5823 5823 5822 5823 5823 5824
5840 5843 5845 5847 5849 5851 5852 5854 5855 5855 5856 5857 5857 5858 5857 5857 5857 5858 5857 5857 5856 5855 5855 5854 5853 5852 5851 5849 5848 5846 5845 5843 5841 5838 5836 5834 5831 5829 5827 5825 5823 5821 5820 5819 5818 5818 5818 5819 5820
5838 5840 5843 5845 5847 5849 5850 5851 5853 5853 5855 5855 5856 5856 5856 5856 5856 5856 5856 5855 5855 5854 5854 5853 5852 5851 5850 5848 5847 5845 5843 5841 5838 5836 5834 5831 5829 5826 5824 5821 5819 5818 5816 5815 5814 5814 5814 5815 5816
5835 5838 5841 5843 5845 5846 5848 5849 5851 5852 5853 5853 5854 5854 5854 5854 5854 5854 5854 5854 5854 5853 5852 5851 5851 5850 5848 5847 5845 5843 5841 5839 5836 5834 5831 5828 5826 5823 5821 5818 5816 5814 5812 5811 5810 5810 5810 5811 5812
5832 5836 5838 5841 5842 5844 5846 5848 5849 5850 5851 5851 5852 5852 5853 5853 5852 5852 5852 5852 5852 5852 5851 5850 5849 5848 5847 5845 5843 5841 5839 5837 5834 5831 5828 5826 5823 5820 5817 5815 5812 5810 5808 5807 5806 5806 5806 5806 5808
5831 5834 5837 5839 5840 5842 5844 5846 5847 5849 5849 5849 5850 5851 5851 5851 5851 5851 5851 5850 5850 5850 5849 5849 5848 5846 5845 5843 5841 5839 5837 5834 5832 5829 5826 5823 5820 5817 5814 5811 5809 5807 5805 5803 5802 5802 5802 5802 5803
5829 5832 5835 5837 5839 5841 5844 5845 5846 5846 5847 5848 5848 5849 5849 5849 5849 5849 5849 5849 5849 5848 5848 5847 5846 5845 5843 5842 5840 5837 5835 5832 5830 5827 5824 5820 5817 5814 5811 5808 5806 5803 5801 5800 5799 5798 5798 5798 5799
5827 5831 5833 5836 5838 5839 5841 5843 5844 5845 5846 5846 5846 5847 5847 5847 5847 5847 5847 5847 5847 5847 5846 5845 5845 5843 5842 5840 5838 5835 5833 5831 5828 5825 5821 5818 5814 5811 5808 5805 5803 5800 5798 5797 5795 5795 5795 5795 5796
5826 5829 5832 5835 5837 5838 5840 5841 5843 5843 5844 5845 5845 5845 5845 5845 5846 5845 5845 5845 5845 5844 5844 5843 5843 5841 5840 5838 5836 5834 5831 5829 5826 5823 5819 5816 5812 5809 5806 5803 5800 5797 5795 5793 5792 5791 5791 5791 5792
5826 5829 5831 5833 5835 5837 5839 5840 5841 5842 5843 5843 5843 5843 5844 5844 5844 5844 5843 5843 5843 5843 5842 5841 5840 5839 5838 5836 5834 5832 5830 5827 5824 5821 5817 5814 5810 5807 5803 5800 5797 5795 5792 5791 5789 5788 5788 5788 5789
5826 5829 5831 5833 5835 5836 5838 5839 5840 5841 5841 5842 5842 5842 5842 5842 5842 5842 5842 5841 5841 5841 5840 5839 5838 5837 5836 5834 5832 5830 5828 5826 5823 5819 5816 5812 5808 5805 5801 5798 5795 5793 5790 5789 5787 5786 5785 5785 5786
5826 5829 5831 5832 5834 5836 5837 5839 5839 5840 5840 5840 5840 5840 5840 5840 5840 5840 5840 5840 5839 5839 5838 5837 5837 5836 5834 5832 5831 5829 5826 5824 5821 5818 5815 5811 5807 5803 5800 5797 5794 5791 5789 5787 5785 5783 5783 5783 5783
5826 5829 5831 5833 5834 5836 5838 5838 5839 5839 5839 5839 5839 5839 5839 5838 5838 5838 5838 5838 5837 5837 5836 5836 5835 5834 5832 5830 5829 5827 5825 5823 5820 5817 5813 5810 5806 5802 5799 5795 5793 5790 5788 5786 5784 5782 5781 5781 5781
5827 5829 5831 5833 5834 5836 5837 5838 5839 5839 5839 5839 5838 5837 5837 5836 5836 5836 5836 5835 5835 5835 5834 5834 5833 5832 5830 5829 5827 5825 5823 5821 5818 5815 5812 5809 5805 5801 5797 5794 5791 5789 5787 5785 5783 5781 5780 5779 5779
5828 5830 5832 5833 5835 5836 5837 5838 5839 5838 5838 5838 5837 5837 5836 5835 5835 5834 5834 5834 5833 5833 5832 5832 5831 5830 5828 5827 5825 5824 5822 5819 5817 5814 5811 5808 5804 5800 5796 5793 5791 5788 5786 5784 5782 5780 5779 5778 5778
5830 5832 5833 5834 5835 5836 5837 5838 5839 5838 5838 5837 5836 5836 5835 5834 5833 5833 5832 5832 5831 5831 5830 5829 5829 5827 5826 5825 5824 5822 5820 5818 5815 5813 5810 5806 5803 5799 5796 5793 5790 5787 5785 5783 5781 5779 5778 5777 5777
5831 5833 5834 5835 5835 5836 5837 5837 5838 5837 5836 5836 5835 5834 5833 5832 5832 5831 5830 5830 5829 5829 5828 5827 5826 5825 5824 5823 5822 5820 5818 5816 5813 5811 5808 5805 5802 5798 5795 5792 5789 5787 5785 5782 5781 5779 5778 5777 5776
5832 5833 5834 5835 5835 5836 5837 5837 5837 5836 5836 5835 5834 5833 5832 5831 5830 5829 5828 5827 5827 5826 5825 5824 5823 5822 5821 5820 5819 5818 5816 5814 5812 5809 5807 5804 5801 5798 5795 5792 5789 5787 5784 5782 5780 5779 5777 5776 5775
5833 5833 5834 5835 5835 5835 5836 5836 5836 5835 5834 5833 5832 5831 5830 5829 5828 5827 5826 5825 5824 5823 5822 5822 5821 5820 5819 5818 5817 5815 5814 5812 5810 5807 5805 5802 5800 5797 5794 5791 5789 5786 5784 5782 5780 5778 5777 5775 5775
5833 5834 5833 5834 5834 5834 5834 5836 5834 5833 5832 5831 5830 5829 5828 5826 5825 5824 5823 5822 5821 5820 5820 5819 5818 5817 5816 5815 5814 5812 5811 5809 5807 5805 5803 5801 5798 5796 5793 5791 5788 5786 5783 5781 5779 5778 5776 5775 5774
5833 5833 5833 5833 5833 5833 5833 5836 5831 5831 5830 5829 5828 5826 5825 5824 5823 5821 5820 5819 5818 5817 5816 5815 5814 5813 5813 5812 5811 5809 5808 5806 5804 5803 5801 5799 5797 5794 5792 5790 5787 5785 5783 5781 5779 5777 5775 5774 5773